Date,TemperatureHighF,TemperatureAvgF,TemperatureLowF,DewpointHighF,DewpointAvgF,DewpointLowF,HumidityHigh,HumidityAvg,HumidityLow,PressureMaxIn,PressureMinIn,WindSpeedMaxMPH,WindSpeedAvgMPH,GustSpeedMaxMPH,PrecipitationSumIn
2013-1-1,63.9,53.9,45.3,35.2,25.0,16.7,67,36,17,30.41,30.27,26,8,26,0.00
2013-1-2,67.8,55.5,43.2,43.0,24.2,11.9,67,33,17,30.32,30.23,29,7,29,0.00
2013-1-3,70.5,55.5,41.9,45.1,27.1,14.6,61,36,17,30.35,30.23,11,4,11,0.00
2013-1-4,70.9,54.8,42.8,33.3,21.9,12.2,58,30,13,30.44,30.34,13,4,13,0.00
2013-1-5,69.1,53.4,43.9,46.0,30.3,15.5,81,45,14,30.47,30.35,14,4,14,0.00
2013-1-6,59.0,49.7,42.6,52.4,44.3,40.1,94,82,63,30.38,30.19,24,4,24,0.01
2013-1-7,65.7,50.7,37.8,43.0,37.9,29.1,94,66,28,30.32,30.18,12,3,12,0.00
2013-1-8,77.7,55.7,43.9,50.5,39.8,29.3,83,59,21,30.28,30.20,13,3,13,0.00
2013-1-9,67.5,53.3,44.2,55.8,47.3,39.0,96,81,50,30.30,30.18,11,2,11,0.00
2013-1-10,61.5,51.6,41.4,50.4,34.7,18.2,98,59,20,30.30,30.09,24,5,24,0.00
2013-1-11,59.4,47.2,34.5,31.2,23.7,12.3,71,42,19,30.38,30.24,18,4,18,0.00
2013-1-12,64.2,45.4,32.7,30.5,25.2,15.8,69,48,18,30.35,30.26,16,4,16,0.00
2013-1-13,62.1,47.7,39.9,34.2,24.1,6.3,72,41,19,30.36,30.22,24,6,24,0.00
2013-1-14,61.0,47.1,36.7,28.9,10.6,0.9,45,23,18,30.54,30.32,27,7,27,0.00
2013-1-15,64.2,49.5,36.9,40.2,21.9,6.3,64,37,17,30.63,30.51,14,4,14,0.00
2013-1-16,74.7,54.5,39.4,34.4,28.4,19.9,67,42,14,30.54,30.33,13,3,13,0.00
2013-1-17,79.7,61.0,44.2,38.2,26.0,17.0,57,30,11,30.36,30.23,21,5,21,0.00
2013-1-18,83.5,65.8,51.1,36.3,22.1,15.2,41,20,11,30.32,30.22,17,6,17,0.00
2013-1-19,80.2,67.2,53.6,27.6,20.3,16.0,33,17,11,30.35,30.23,24,8,27,0.00
2013-1-20,84.2,65.7,50.7,29.6,20.6,14.1,33,19,11,30.32,30.17,23,5,23,0.00
2013-1-21,82.4,66.3,50.0,24.1,19.3,12.7,31,17,10,30.28,30.15,30,7,30,0.00
2013-1-22,81.9,66.0,54.3,43.7,21.5,13.4,34,19,10,30.26,30.17,17,6,17,0.00
2013-1-23,77.7,65.5,54.7,49.7,29.9,16.8,83,32,13,30.28,30.16,19,6,19,0.06
2013-1-24,63.1,57.7,53.1,58.4,55.0,49.6,99,91,76,30.35,30.25,17,6,17,0.61
2013-1-25,63.0,60.3,57.4,57.6,54.9,50.7,97,83,65,30.30,30.14,17,4,17,0.12
2013-1-26,72.1,57.9,54.5,64.8,55.9,53.0,99,93,68,30.15,30.05,11,3,11,0.02
2013-1-27,67.3,55.4,43.7,59.1,42.3,22.6,98,66,21,30.22,29.41,21,5,21,0.00
2013-1-28,65.3,51.4,40.1,39.4,30.7,21.1,71,47,20,30.37,30.21,22,6,22,0.00
2013-1-29,64.8,49.9,40.8,44.3,37.1,29.1,89,65,29,30.41,30.31,13,2,13,0.00
2013-1-30,71.2,53.2,41.5,45.8,41.0,37.1,91,66,33,30.51,30.39,10,3,10,0.00
2013-1-31,78.4,58.6,44.2,50.3,42.8,35.3,84,60,22,30.42,30.26,11,3,11,0.00
2013-2-1,78.4,59.0,48.9,53.8,46.2,35.6,93,66,22,30.34,30.27,15,4,15,0.00
2013-2-2,75.6,63.4,52.9,56.2,46.5,36.8,81,56,30,30.37,30.28,12,3,12,0.00
2013-2-3,73.8,57.9,46.8,56.1,50.3,43.4,97,77,41,30.32,30.17,12,4,12,0.00
2013-2-4,69.6,53.8,41.9,55.9,48.2,41.6,99,83,50,30.27,30.14,14,3,14,0.00
2013-2-5,63.9,52.8,45.9,54.3,50.2,44.3,99,91,68,30.27,30.16,11,3,11,0.00
2013-2-6,67.3,54.7,45.0,55.8,48.2,43.2,97,80,53,30.28,30.17,12,3,12,0.00
2013-2-7,66.2,51.9,42.6,51.8,45.5,41.7,97,80,56,30.31,30.14,14,4,14,0.00
2013-2-8,55.2,48.6,41.9,44.1,40.3,37.1,85,73,59,30.15,30.03,25,7,25,0.00
2013-2-9,61.5,48.1,37.0,43.9,37.3,30.3,90,69,31,30.26,30.11,19,5,19,0.00
2013-2-10,62.2,49.5,41.9,45.2,39.9,34.1,89,71,43,30.27,30.18,15,4,15,0.00
2013-2-11,67.5,51.7,41.4,43.5,36.3,18.7,91,60,18,30.42,27.30,20,4,20,0.00
2013-2-12,65.8,51.4,39.4,42.4,32.6,18.0,74,52,18,30.52,30.40,15,5,15,0.00
2013-2-13,68.2,51.7,39.4,51.4,40.5,27.3,85,68,24,30.44,30.30,15,4,15,0.00
2013-2-14,72.0,54.0,40.3,51.4,42.7,29.3,89,68,31,30.38,30.24,13,3,13,0.00
2013-2-15,83.3,68.6,48.4,39.7,25.8,16.3,71,24,11,30.36,30.27,32,9,32,0.00
2013-2-16,81.9,67.8,48.9,39.0,23.3,14.6,45,21,10,30.32,30.15,24,6,24,0.00
2013-2-17,68.7,55.4,43.3,53.6,42.1,23.2,93,64,22,30.32,30.09,14,4,14,0.00
2013-2-18,66.0,54.9,50.0,50.6,48.2,43.7,93,79,51,30.24,30.11,14,4,14,0.00
2013-2-19,57.7,51.0,43.3,49.5,45.8,34.3,98,83,60,30.15,29.89,24,6,24,0.17
2013-2-20,66.6,51.9,40.3,39.6,30.1,19.7,69,46,18,30.17,29.90,23,6,23,0.00
2013-2-21,64.2,49.3,37.8,45.0,36.2,29.4,78,62,31,30.28,30.15,17,4,17,0.00
2013-2-22,68.5,53.4,42.1,47.8,37.2,24.5,85,58,21,30.37,30.27,13,4,13,0.00
2013-2-23,64.8,52.5,40.1,52.3,42.9,33.1,90,71,38,30.34,30.05,14,4,14,0.00
2013-2-24,71.8,55.7,42.1,42.1,26.1,15.1,89,38,13,30.38,30.18,23,6,23,0.00
2013-2-25,70.9,53.5,42.8,49.5,30.7,12.8,84,48,13,30.41,30.23,14,5,14,0.00
2013-2-26,69.3,53.7,37.4,48.6,36.9,24.2,82,58,19,30.30,30.16,19,4,19,0.00
2013-2-27,78.8,62.8,45.7,33.5,20.9,14.9,61,22,11,30.47,30.29,17,6,17,0.00
2013-2-28,78.1,60.7,44.6,47.4,30.7,18.6,64,36,12,30.50,30.39,16,4,16,0.00
2013-3-1,86.5,68.4,54.5,51.6,30.8,18.8,65,28,11,30.48,30.32,25,6,25,0.00
2013-3-2,84.6,66.2,53.1,55.1,38.2,21.6,96,44,15,30.38,30.23,14,5,14,0.00
2013-3-3,72.0,58.3,51.3,57.1,51.7,41.7,94,80,35,30.30,30.14,17,5,17,0.00
2013-3-4,66.0,54.5,47.3,54.2,49.8,45.9,97,85,60,30.27,30.17,17,4,17,0.00
2013-3-5,62.6,53.0,45.5,51.8,48.9,43.9,95,86,64,30.30,30.19,15,4,15,0.00
2013-3-6,60.4,51.9,44.8,50.5,47.2,42.3,97,85,58,30.32,30.17,10,3,10,0.00
2013-3-7,63.3,54.0,47.5,53.5,47.6,41.4,98,81,48,30.18,30.00,14,4,14,0.45
2013-3-8,62.2,52.1,43.3,51.5,45.6,42.1,99,80,59,30.19,29.95,22,6,22,0.30
2013-3-9,66.2,54.6,40.5,50.3,42.7,30.7,91,66,29,30.38,30.18,24,5,24,0.00
2013-3-10,76.1,58.6,45.1,52.3,40.6,29.1,91,56,22,30.45,30.33,17,5,17,0.00
2013-3-11,71.1,56.2,43.3,52.7,44.5,37.6,90,68,34,30.36,30.21,14,4,14,0.00
2013-3-12,69.6,56.4,45.1,53.6,47.8,41.3,93,74,46,30.26,30.19,12,3,12,0.00
2013-3-13,72.7,56.1,44.1,56.4,50.1,42.4,99,82,43,30.28,30.19,13,3,13,0.00
2013-3-14,62.6,53.8,45.9,59.3,51.3,45.1,99,92,72,30.27,30.17,17,4,17,0.00
2013-3-15,67.8,55.4,49.1,63.4,52.7,48.8,99,91,64,30.20,30.10,14,3,14,0.00
2013-3-16,63.9,53.4,48.7,55.7,51.5,47.5,99,93,70,30.15,30.04,15,3,15,0.00
2013-3-17,69.1,55.3,48.6,56.7,51.6,47.9,99,89,58,30.18,30.08,14,3,14,0.00
2013-3-18,63.1,54.7,47.1,53.3,50.8,46.7,99,87,67,30.25,30.14,13,3,13,0.00
2013-3-19,64.6,56.1,47.8,55.7,52.1,46.8,97,87,68,30.29,30.19,17,5,17,0.00
2013-3-20,68.2,58.7,51.4,57.6,53.0,49.3,98,82,61,30.27,30.11,14,3,14,0.00
2013-3-21,73.2,59.1,48.2,55.6,51.7,46.6,94,78,49,30.11,29.95,13,4,13,0.00
2013-3-22,72.9,58.9,45.1,53.8,45.5,29.8,94,64,21,30.06,29.94,16,4,16,0.00
2013-3-23,70.3,56.2,43.5,55.2,44.9,28.6,92,68,34,30.19,30.05,15,4,15,0.00
2013-3-24,71.1,57.6,45.7,55.6,49.8,39.4,99,77,34,30.19,30.05,18,4,18,0.00
2013-3-25,69.3,56.7,45.1,57.2,50.0,38.5,96,80,34,30.15,30.05,14,4,14,0.00
2013-3-26,65.3,55.8,45.1,55.2,50.4,43.8,96,83,56,30.15,30.06,14,4,14,0.00
2013-3-27,70.3,57.3,50.0,56.2,52.0,48.9,99,84,52,30.21,30.09,15,5,15,0.00
2013-3-28,67.5,56.8,49.6,55.6,53.0,49.4,99,88,63,30.25,30.17,15,4,15,0.00
2013-3-29,68.4,60.0,53.8,58.1,55.0,53.0,97,84,66,30.28,30.19,17,6,17,0.00
2013-3-30,65.8,57.3,53.4,57.4,53.8,51.6,99,89,71,30.30,30.22,16,5,16,0.00
2013-3-31,65.5,58.0,52.9,61.5,55.4,51.5,98,91,71,30.29,30.21,16,5,16,0.14
2013-4-1,68.2,57.2,51.6,59.0,53.4,49.3,99,88,61,30.34,30.23,17,5,17,0.00
2013-4-2,69.8,58.1,48.4,57.7,52.3,46.8,97,82,59,30.26,30.15,16,4,16,0.00
2013-4-3,68.2,58.2,50.5,57.6,54.1,48.9,99,87,61,30.26,30.15,16,5,16,0.00
2013-4-4,66.9,58.3,53.6,57.9,54.9,52.8,98,89,68,30.28,30.16,23,6,23,0.00
2013-4-5,69.8,61.0,54.0,57.8,55.4,50.8,92,82,62,30.26,30.12,14,4,14,0.00
2013-4-6,73.2,61.3,52.2,57.6,54.1,50.2,96,79,53,30.26,30.08,17,4,17,0.00
2013-4-7,75.9,61.6,50.4,57.9,52.6,48.7,94,75,42,30.13,29.91,12,3,12,0.00
2013-4-8,70.3,60.2,50.9,52.5,39.9,25.7,95,53,20,30.00,29.85,36,9,36,0.01
2013-4-9,71.6,58.5,44.2,50.5,39.9,24.2,79,54,17,30.16,29.99,24,6,24,0.00
2013-4-10,81.3,63.0,47.8,51.6,39.0,23.5,84,47,12,30.27,30.12,18,4,18,0.00
2013-4-11,68.2,57.9,48.4,53.5,48.8,40.6,88,72,54,30.14,29.93,18,4,18,0.00
2013-4-12,63.9,56.7,51.6,54.5,52.5,48.0,98,86,69,30.04,29.95,15,5,15,0.00
2013-4-13,60.8,55.6,52.0,55.4,53.4,51.4,98,93,79,30.08,30.00,12,4,12,0.00
2013-4-14,63.9,57.0,53.8,55.3,52.8,51.2,99,87,66,30.05,29.98,13,5,13,0.00
2013-4-15,56.5,56.5,56.5,51.4,51.4,51.4,83,83,83,29.99,29.99,7,7,7,0.00
2013-4-16,63.7,57.2,52.9,51.4,45.3,15.8,83,70,17,30.17,29.98,19,6,19,0.00
2013-4-17,68.5,58.0,46.6,47.9,34.9,18.8,72,44,15,30.28,30.17,19,6,19,0.00
2013-4-18,79.2,64.5,51.1,42.4,25.9,14.8,58,27,11,30.36,30.28,21,7,21,0.00
2013-4-19,79.3,63.6,49.8,52.6,36.8,15.7,90,44,12,30.33,29.99,17,5,17,0.00
2013-4-20,80.1,62.9,50.9,57.0,49.9,40.0,89,65,27,30.15,30.02,15,4,15,0.00
2013-4-21,78.3,61.9,51.8,59.0,53.3,36.6,97,76,24,30.16,30.07,12,4,12,0.00
2013-4-22,69.4,59.9,55.9,56.3,54.6,53.0,93,83,63,30.17,30.04,14,5,14,0.00
2013-4-23,68.5,60.2,55.8,54.9,53.4,51.6,94,79,61,30.12,30.03,15,5,15,0.00
2013-4-24,60.3,57.1,54.3,57.6,54.3,51.2,98,90,80,30.14,30.05,8,3,8,0.00
2013-4-25,72.7,60.3,50.5,58.1,49.6,44.2,92,70,41,30.28,30.11,18,5,18,0.00
2013-4-26,68.7,59.6,50.4,56.1,52.1,46.6,96,78,56,30.31,30.25,16,5,16,0.00
2013-4-27,69.1,59.2,49.6,58.1,53.8,48.0,98,83,60,30.30,30.14,19,5,19,0.00
2013-4-28,66.4,58.0,52.3,58.6,55.2,51.5,98,91,73,30.16,30.01,14,4,17,0.00
2013-4-29,67.5,58.7,52.9,58.7,55.6,52.3,99,90,73,30.06,29.93,12,4,12,0.00
2013-4-30,65.3,59.2,54.9,58.9,55.4,51.4,99,88,69,30.04,29.97,12,3,12,0.01
2013-5-1,70.3,62.9,54.5,58.7,55.4,51.0,91,77,59,30.24,30.03,17,5,17,0.00
2013-5-2,90.9,67.4,49.5,56.8,45.6,17.7,97,59,10,30.27,30.16,28,7,28,0.00
2013-5-3,96.1,72.6,55.4,59.5,36.1,16.3,82,34,10,30.18,29.90,15,5,15,0.00
2013-5-4,72.7,62.7,52.5,59.8,54.9,43.8,94,76,59,29.98,29.88,17,5,17,0.00
2013-5-5,62.6,58.4,57.6,55.1,52.6,52.1,83,81,71,30.08,29.97,14,5,14,0.00
2013-5-6,66.6,60.7,55.9,61.8,55.7,51.6,99,84,59,30.17,30.02,13,4,13,0.19
2013-5-7,72.5,62.5,55.8,58.6,53.9,50.8,92,75,50,30.21,30.13,20,5,20,0.00
2013-5-8,71.8,61.8,54.0,58.0,54.1,48.9,93,77,50,30.25,30.20,18,6,18,0.00
2013-5-9,72.0,61.2,51.8,58.5,53.8,49.0,93,78,52,30.25,30.16,17,5,17,0.00
2013-5-10,71.1,62.0,53.6,59.9,56.3,51.3,95,83,60,30.25,30.14,20,5,20,0.00
2013-5-11,75.4,62.6,55.0,65.5,58.9,54.2,98,88,62,30.22,30.15,17,5,17,0.00
2013-5-12,75.9,65.7,55.4,64.2,59.7,55.1,99,82,61,30.20,30.05,17,4,17,0.00
2013-5-13,76.3,65.3,57.7,62.2,58.9,55.8,95,81,61,30.13,30.04,17,5,17,0.00
2013-5-14,74.3,60.9,53.4,60.6,55.2,52.1,99,83,57,30.14,30.05,21,5,21,0.00
2013-5-15,68.4,60.5,51.8,58.3,53.9,49.3,92,80,61,30.19,30.08,16,5,16,0.00
2013-5-16,69.4,60.1,51.3,58.3,54.3,49.2,94,82,65,30.14,30.03,17,4,17,0.00
2013-5-17,70.2,61.8,53.2,58.8,54.5,50.4,93,78,59,30.13,30.05,16,4,16,0.00
2013-5-18,71.4,61.2,51.8,58.9,53.2,48.7,90,76,54,30.20,30.10,17,4,17,0.00
2013-5-19,74.7,63.5,52.0,59.3,54.1,49.1,92,73,44,30.15,30.00,17,4,17,0.00
2013-5-20,72.7,64.3,53.4,61.2,56.6,50.4,91,77,49,30.10,30.00,18,5,18,0.00
2013-5-21,72.3,64.3,58.8,63.0,59.1,54.5,97,84,69,30.09,29.96,17,5,17,0.00
2013-5-22,70.5,61.7,52.0,58.4,53.2,49.1,92,75,55,30.00,29.91,19,5,19,0.00
2013-5-23,70.0,60.4,51.8,57.1,50.5,44.7,88,71,45,30.08,29.97,17,6,17,0.00
2013-5-24,73.4,60.5,50.4,56.7,51.4,45.7,92,73,47,30.15,30.05,18,6,18,0.00
2013-5-25,70.9,60.5,49.6,57.1,52.3,46.0,89,75,54,30.18,30.10,17,5,17,0.00
2013-5-26,71.8,61.5,49.5,57.1,53.2,47.2,92,75,55,30.21,30.12,16,5,16,0.00
2013-5-27,73.6,63.6,52.0,58.6,54.8,48.8,90,74,55,30.15,29.98,14,4,14,0.00
2013-5-28,76.1,66.4,55.8,60.1,56.8,52.6,90,72,52,30.01,29.86,21,5,21,0.00
2013-5-29,78.1,66.8,57.6,60.1,56.7,54.0,88,71,52,29.96,29.84,15,5,15,0.00
2013-5-30,73.8,65.0,55.0,61.0,56.0,52.3,92,73,57,30.01,29.90,14,5,14,0.00
2013-5-31,73.9,64.9,58.3,62.1,57.7,53.2,93,78,60,30.06,29.95,17,4,17,0.00
2013-6-1,73.2,64.3,58.3,63.2,59.5,53.5,95,85,67,30.00,29.88,14,5,14,0.00
2013-6-2,69.6,63.1,58.8,62.9,59.8,57.5,99,89,76,29.98,29.91,14,4,14,0.00
2013-6-3,72.0,63.6,57.2,62.5,58.9,55.2,99,86,63,30.04,29.93,15,5,15,0.00
2013-6-4,70.7,63.3,55.0,60.9,57.3,51.2,92,81,64,30.12,30.02,18,6,18,0.00
2013-6-5,68.2,60.5,54.0,58.5,55.5,50.8,92,84,67,30.17,30.07,22,6,22,0.00
2013-6-6,69.1,60.6,54.1,59.3,56.5,51.7,96,87,69,30.11,30.02,19,5,19,0.00
2013-6-7,69.1,61.1,57.9,59.7,57.6,56.3,95,89,71,30.06,29.93,15,4,15,0.00
2013-6-8,67.3,62.1,59.4,61.2,58.5,57.3,94,88,77,30.05,29.93,12,4,12,0.00
2013-6-9,65.5,61.8,59.2,62.8,58.6,56.3,99,89,81,30.08,30.02,12,4,12,0.01
2013-6-10,75.7,65.5,59.7,59.8,57.0,52.5,92,75,49,30.10,30.03,17,5,17,0.00
2013-6-11,72.9,64.2,55.8,62.8,58.8,54.1,96,84,65,30.09,30.02,18,5,18,0.00
2013-6-12,71.6,62.6,59.2,60.4,59.1,58.1,97,89,67,30.18,30.07,17,5,17,0.00
2013-6-13,68.2,62.7,57.0,62.2,58.9,53.6,99,88,75,30.16,30.03,14,4,14,0.00
2013-6-14,71.1,63.0,53.6,62.4,58.1,52.5,97,85,69,30.07,29.98,17,5,17,0.00
2013-6-15,71.1,62.3,58.6,62.9,58.8,56.4,99,89,69,30.12,30.02,16,5,16,0.01
2013-6-16,73.8,63.2,56.5,61.3,57.9,54.5,93,84,59,30.19,30.09,19,5,19,0.00
2013-6-17,75.4,63.4,53.6,62.7,57.8,51.6,98,83,61,30.15,30.01,16,4,16,0.00
2013-6-18,73.0,64.7,55.8,64.9,57.3,53.3,93,78,61,30.08,29.96,16,5,16,0.00
2013-6-19,77.7,66.7,54.3,59.7,55.4,51.2,91,69,41,30.02,29.90,16,5,16,0.00
2013-6-20,77.0,66.1,53.2,61.4,55.3,47.9,85,69,44,30.00,29.93,16,4,16,0.00
2013-6-21,73.9,65.9,54.5,60.7,55.3,49.8,85,69,51,30.05,29.97,14,4,14,0.00
2013-6-22,74.3,64.4,55.9,62.7,57.4,50.2,92,78,63,30.07,29.96,16,5,16,0.00
2013-6-23,70.2,61.4,56.5,61.3,57.9,53.6,92,89,70,30.04,29.97,9,2,9,0.00